Temp
85 86 84 80 69 69 62 65 74 72 68 75 79 75 74 72 70 66 80 82 85 85 83 85 82 83 83 83 83 83 83 83 83 83 83 83 83 83 83 83 84 83 83 83 84 83 83 83 83
86 82 81 73 67 61 62 70 69 73 72 79 78 75 73 69 75 74 78 82 85 86 88 86 81 83 83 83 83 83 83 83 83 83 83 83 83 83 83 83 83 83 84 83 83 83 83 83 83
85 83 74 69 64 61 61 67 69 72 78 78 74 77 74 70 75 79 82 83 84 83 86 85 82 83 83 83 83 83 83 83 83 83 83 83 83 83 83 83 83 83 83 83 83 83 83 83 83
83 78 74 66 62 64 68 68 68 71 77 78 77 70 76 79 80 82 83 84 83 84 86 84 83 82 83 83 82 82 83 83 83 83 83 83 82 83 82 82 83 83 83 83 83 83 83 83 83
85 76 66 61 60 65 68 72 69 71 73 75 76 69 70 76 80 83 82 84 84 86 87 87 82 83 83 82 81 82 82 83 83 83 83 82 82 82 83 83 83 84 83 83 83 83 83 84 84
75 76 65 60 62 66 69 72 70 73 74 74 72 71 70 78 79 81 84 84 84 82 82 86 82 82 82 82 83 83 83 83 82 83 83 83 82 82 83 84 84 84 84 83 83 83 83 84 82
73 69 64 62 61 64 68 72 72 74 74 73 77 69 72 76 80 82 82 83 83 82 82 82 86 84 83 83 83 83 83 83 82 82 81 83 83 82 83 84 84 84 84 84 83 83 83 83 82
76 72 65 65 62 64 69 70 74 76 73 81 80 71 70 77 80 82 83 83 82 82 83 81 82 83 83 83 83 83 83 83 83 81 82 81 82 82 82 83 83 84 84 83 82 82 82 82 82
79 69 65 66 64 66 71 70 75 81 75 78 78 76 79 80 80 80 79 78 78 80 81 83 83 81 81 81 82 81 81 83 82 79 80 80 84 78 83 84 84 84 84 83 83 82 81 80 80
76 67 67 73 72 69 72 73 73 75 75 74 73 76 78 79 78 77 77 77 77 76 77 80 81 80 80 80 79 76 73 78 73 74 75 83 79 80 87 85 83 84 84 83 82 82 81 82 87
73 68 73 73 75 75 72 72 76 76 71 76 75 74 76 77 77 77 77 77 77 78 78 79 78 79 79 77 77 73 70 71 70 75 77 75 78 80 86 88 89 87 83 87 85 85 89 84 84
71 74 73 72 76 74 72 74 73 76 76 83 81 79 78 77 78 78 78 78 77 77 78 76 78 78 78 77 76 74 73 73 73 75 78 76 77 79 83 88 87 85 88 84 83 82 84 83 83
73 73 74 74 75 75 74 68 69 74 79 82 79 78 78 78 79 79 80 80 78 77 78 78 78 77 74 72 72 73 76 77 77 78 75 74 77 76 85 85 85 87 88 86 80 84 84 82 84
75 73 73 74 72 73 71 68 74 75 76 75 78 78 79 79 79 79 79 79 79 78 78 79 79 77 73 71 71 71 76 78 81 76 75 75 78 83 85 85 86 87 85 86 81 82 85 85 86
74 69 71 71 72 70 72 66 65 74 76 73 77 78 79 79 80 79 81 80 81 81 80 78 79 79 77 76 71 73 73 74 80 74 74 74 77 83 82 85 85 85 86 82 83 78 78 86 88
71 70 64 70 71 71 72 61 71 70 72 73 73 77 78 79 81 81 82 82 82 82 79 79 82 80 79 78 72 72 73 74 75 75 74 76 79 82 83 85 85 85 85 81 86 85 86 85 85
68 65 63 65 73 71 68 66 73 71 70 71 76 78 79 80 81 82 83 83 83 82 80 79 80 79 79 78 75 72 73 73 74 74 75 82 83 83 85 87 86 82 86 83 85 84 83 83 84
64 67 66 65 70 69 67 67 72 73 71 72 77 78 78 80 82 84 84 85 85 83 81 80 80 79 79 80 79 79 75 72 75 80 83 84 85 84 84 86 85 84 86 83 84 82 83 83 82
70 68 67 69 73 68 67 68 73 75 72 72 74 78 79 80 85 86 84 85 84 83 81 79 78 78 79 79 80 81 81 82 83 84 83 84 85 84 84 88 86 85 85 83 82 83 81 84 83
71 69 68 69 71 69 68 67 72 75 74 75 75 76 78 81 81 81 83 83 83 82 81 80 79 78 79 81 81 82 82 85 85 85 85 85 85 84 84 85 86 83 85 82 81 80 82 83 83
73 70 69 68 68 70 67 67 68 73 76 78 78 79 80 79 79 80 81 82 84 82 80 80 79 79 80 80 81 81 81 82 82 83 85 85 85 86 85 84 85 84 84 84 82 82 80 83 82
69 74 74 69 67 62 68 59 68 70 70 73 77 78 78 80 80 82 82 81 83 83 83 82 81 79 80 79 80 79 82 83 85 85 86 86 85 85 86 84 83 83 86 83 83 85 83 82 83
73 74 71 69 67 65 64 60 71 66 69 71 75 77 80 83 83 82 81 81 79 84 83 83 81 80 80 79 80 81 80 84 85 84 82 82 83 85 86 85 83 83 85 83 82 82 82 85 85
77 71 69 67 65 59 64 64 68 70 72 74 77 79 80 81 83 83 83 80 73 81 84 83 80 79 79 79 79 79 79 80 82 83 83 84 85 86 84 85 84 83 84 82 83 83 82 83 83
75 71 63 60 58 61 64 63 71 75 77 76 78 79 81 82 83 83 82 78 71 80 78 83 80 78 79 79 80 80 80 80 80 81 85 84 85 85 84 83 83 85 83 83 83 81 83 84 82
72 74 65 54 55 63 63 62 74 77 79 79 79 80 81 81 83 82 82 79 73 80 80 79 80 79 78 80 80 80 80 82 83 83 85 85 86 87 85 84 85 84 85 85 83 83 85 84 85
70 68 77 65 63 62 68 70 77 76 76 76 77 77 77 80 82 82 83 82 74 80 80 75 75 77 79 80 80 80 80 80 82 81 81 84 83 86 83 84 84 84 84 84 84 85 83 84 85
77 78 68 68 56 55 63 62 69 73 74 75 76 77 77 79 80 82 81 80 80 83 83 81 82 80 80 81 82 82 82 81 82 81 80 80 82 82 82 83 84 84 84 84 83 84 84 82 85
71 72 69 71 67 62 60 66 77 75 77 77 80 78 78 79 79 80 80 79 79 79 77 82 82 81 79 80 82 81 82 83 82 82 82 82 82 82 82 82 83 83 84 84 82 82 83 82 83
78 75 75 67 61 64 65 68 76 77 79 80 80 79 80 79 81 81 81 79 78 75 79 79 79 79 79 81 78 80 82 82 83 82 83 83 82 83 80 82 82 83 82 82 82 81 85 83 83
MSLP
1011.39 1011.55 1011.69 1011.55 1011.87 1011.06 1011.07 1011.23 1010.89 1010.73 1011.24 1011.53 1011.49 1011.85 1012.13 1012.60 1012.91 1013.71 1014.04 1014.29 1014.28 1014.57 1015.00 1015.18 1015.42 1015.41 1015.66 1016.00 1016.26 1016.40 1016.58 1016.60 1016.63 1016.60 1016.56 1016.71 1016.71 1016.86 1016.92 1016.97 1017.16 1017.46 1017.56 1017.76 1017.68 1017.80 1017.97 1018.03 1017.95
1011.34 1011.70 1011.70 1011.45 1011.39 1010.98 1011.68 1011.61 1011.20 1011.36 1011.62 1011.66 1011.87 1012.18 1012.45 1012.96 1013.45 1014.05 1014.19 1014.51 1014.36 1014.56 1014.82 1015.19 1015.60 1015.71 1015.88 1016.16 1016.29 1016.53 1016.69 1016.71 1016.68 1016.78 1016.88 1016.96 1016.96 1017.05 1017.09 1016.92 1017.49 1017.67 1017.67 1017.68 1017.76 1017.80 1017.96 1018.11 1018.18
1011.32 1011.46 1011.48 1011.41 1011.53 1011.23 1011.62 1012.04 1011.93 1011.76 1011.65 1011.42 1011.99 1012.45 1012.93 1013.51 1013.96 1014.01 1014.19 1014.58 1014.69 1014.88 1014.99 1015.38 1015.80 1015.97 1016.20 1016.21 1016.41 1016.68 1016.80 1016.88 1016.88 1016.93 1017.03 1017.11 1017.14 1017.18 1017.26 1017.40 1017.64 1017.75 1017.73 1017.69 1017.87 1018.04 1018.19 1018.30 1018.38
1011.09 1011.47 1011.83 1011.66 1011.61 1011.97 1011.81 1012.26 1012.41 1011.93 1011.79 1011.87 1012.17 1012.69 1013.49 1014.01 1013.84 1014.11 1014.54 1014.57 1014.88 1015.05 1015.19 1015.54 1015.86 1016.15 1016.41 1016.48 1016.54 1016.92 1016.94 1017.07 1017.05 1017.12 1017.11 1017.23 1017.44 1017.49 1017.55 1017.44 1017.75 1017.73 1017.75 1017.90 1018.16 1018.34 1018.31 1018.42 1018.40
1011.05 1011.19 1011.45 1011.83 1012.24 1012.40 1012.48 1012.36 1012.41 1012.08 1012.11 1012.13 1012.27 1013.00 1013.64 1014.28 1014.43 1014.53 1014.81 1015.00 1014.94 1015.09 1015.31 1015.51 1015.88 1016.14 1016.46 1016.59 1016.69 1016.95 1017.01 1017.28 1017.19 1017.15 1017.24 1017.43 1017.57 1017.63 1017.71 1017.55 1017.80 1017.83 1017.90 1018.05 1018.24 1018.27 1018.43 1018.43 1018.37
1010.91 1011.17 1011.32 1011.80 1012.26 1012.45 1012.49 1012.41 1012.34 1012.05 1012.10 1012.23 1012.53 1013.08 1013.95 1014.45 1014.64 1014.87 1015.00 1015.13 1015.24 1015.50 1015.77 1015.72 1016.13 1016.47 1016.55 1016.62 1016.79 1016.94 1017.16 1017.30 1017.36 1017.39 1017.43 1017.52 1017.80 1017.84 1017.74 1017.83 1017.96 1018.00 1018.04 1018.22 1018.30 1018.37 1018.36 1018.44 1018.68
1010.75 1011.08 1011.42 1011.84 1012.26 1012.31 1012.18 1012.39 1012.03 1011.78 1011.68 1011.96 1012.56 1012.98 1014.01 1014.28 1014.79 1015.12 1015.23 1015.36 1015.40 1015.69 1015.90 1016.12 1016.06 1016.26 1016.45 1016.61 1016.77 1016.93 1017.15 1017.29 1017.48 1017.57 1017.61 1017.77 1017.95 1018.17 1017.99 1018.06 1018.20 1018.21 1018.27 1018.20 1018.36 1018.31 1018.39 1018.64 1018.70
1010.88 1011.18 1011.35 1011.63 1011.90 1011.99 1012.08 1012.21 1012.01 1011.42 1011.79 1012.08 1012.40 1012.69 1013.43 1014.13 1014.87 1015.19 1015.31 1015.46 1015.68 1015.82 1015.87 1016.24 1016.28 1016.26 1016.42 1016.55 1016.78 1016.98 1017.15 1017.36 1017.58 1017.97 1018.02 1018.10 1018.16 1018.20 1018.27 1018.31 1018.41 1018.28 1018.27 1018.25 1018.33 1018.41 1018.51 1018.67 1018.80
1011.06 1011.11 1011.04 1011.14 1011.48 1011.66 1012.00 1011.97 1011.80 1011.52 1011.78 1011.95 1012.54 1012.82 1013.25 1014.25 1014.97 1015.26 1015.45 1015.68 1015.88 1016.04 1016.12 1016.08 1016.22 1016.48 1016.53 1016.68 1016.84 1017.05 1017.30 1017.44 1017.76 1018.28 1018.45 1018.44 1018.28 1018.55 1018.43 1018.35 1018.39 1018.35 1018.25 1018.28 1018.44 1018.63 1018.66 1018.82 1018.90
1010.74 1010.96 1010.81 1011.02 1011.15 1011.22 1011.64 1011.64 1011.45 1011.40 1011.64 1012.05 1012.79 1013.44 1013.82 1014.45 1014.98 1015.21 1015.32 1015.47 1015.79 1016.12 1016.38 1016.41 1016.32 1016.50 1016.65 1016.81 1016.98 1017.49 1017.75 1018.07 1018.38 1018.54 1018.86 1018.49 1018.67 1018.60 1018.35 1018.29 1018.39 1018.31 1018.33 1018.43 1018.62 1018.69 1018.79 1018.69 1018.62
1010.75 1010.72 1010.83 1010.96 1011.06 1011.14 1011.45 1011.59 1011.35 1011.09 1011.40 1011.59 1012.26 1013.33 1013.92 1014.51 1014.97 1015.16 1015.35 1015.63 1015.81 1016.21 1016.46 1016.63 1016.74 1016.80 1016.75 1016.97 1017.40 1017.88 1018.31 1018.60 1018.23 1018.68 1018.77 1018.84 1018.75 1018.64 1018.43 1018.29 1018.20 1018.26 1018.39 1018.39 1018.59 1018.61 1018.53 1018.60 1018.65
1010.57 1010.83 1011.01 1011.21 1011.13 1011.28 1011.38 1011.61 1011.41 1011.27 1011.37 1011.40 1012.21 1013.22 1013.86 1014.36 1014.71 1014.90 1015.12 1015.59 1015.95 1016.31 1016.45 1016.79 1016.82 1017.01 1017.09 1017.27 1017.59 1018.06 1018.40 1018.76 1018.78 1018.78 1018.92 1018.97 1018.76 1018.74 1018.53 1018.25 1018.16 1018.12 1018.08 1018.35 1018.56 1018.73 1018.71 1018.72 1018.63
1010.56 1010.90 1011.27 1011.40 1011.40 1011.34 1011.50 1011.91 1011.86 1011.59 1011.62 1011.89 1012.54 1013.27 1013.77 1014.09 1014.55 1014.93 1015.13 1015.55 1016.00 1016.30 1016.60 1016.80 1016.86 1017.14 1017.49 1017.76 1017.98 1018.19 1018.35 1018.55 1018.74 1018.80 1018.90 1018.88 1018.71 1018.82 1018.43 1018.31 1017.99 1017.82 1017.88 1018.10 1018.49 1018.54 1018.51 1018.60 1018.45
1010.96 1011.23 1011.51 1011.60 1011.64 1011.68 1011.69 1011.93 1011.70 1012.09 1012.11 1012.41 1012.64 1013.11 1013.60 1013.89 1014.31 1014.85 1015.11 1015.32 1015.73 1016.18 1016.56 1016.93 1017.09 1017.28 1017.80 1017.95 1018.06 1018.33 1018.38 1018.45 1018.40 1018.70 1018.86 1018.90 1018.81 1018.53 1018.27 1018.10 1017.73 1017.64 1017.79 1018.02 1018.29 1018.41 1018.34 1018.28 1018.07
1011.10 1011.29 1011.58 1011.75 1011.81 1011.89 1011.94 1012.19 1012.10 1012.30 1012.29 1012.60 1012.69 1013.08 1013.37 1013.76 1014.21 1014.49 1014.74 1015.08 1015.41 1015.90 1016.57 1017.01 1017.15 1017.38 1017.70 1017.92 1018.38 1018.37 1018.50 1018.45 1018.33 1018.74 1018.99 1018.93 1018.79 1018.53 1018.34 1017.92 1017.65 1017.54 1017.86 1018.25 1018.42 1018.45 1018.55 1017.85 1017.66
1010.89 1011.13 1011.12 1011.52 1011.82 1011.96 1011.96 1011.45 1011.58 1012.21 1012.36 1012.48 1012.70 1012.85 1013.10 1013.56 1013.83 1014.15 1014.58 1014.84 1015.26 1015.75 1016.46 1017.06 1017.11 1017.44 1017.71 1017.85 1018.33 1018.29 1018.42 1018.52 1018.32 1018.08 1018.50 1018.49 1018.62 1018.62 1018.33 1017.82 1017.61 1017.72 1018.04 1018.16 1017.97 1018.14 1018.01 1018.04 1018.01
1010.65 1010.37 1010.71 1011.17 1011.49 1011.66 1012.01 1011.09 1011.27 1011.98 1012.24 1012.38 1012.37 1012.49 1012.58 1012.94 1013.41 1013.75 1014.12 1014.51 1014.88 1015.49 1016.22 1016.85 1017.27 1017.47 1017.71 1017.92 1018.14 1018.37 1018.28 1018.51 1018.50 1018.65 1018.65 1018.38 1018.45 1018.55 1018.16 1017.79 1017.77 1017.98 1017.77 1018.11 1018.26 1018.42 1018.44 1018.33 1018.34
1009.82 1009.87 1010.21 1010.41 1010.92 1011.34 1011.37 1010.93 1011.08 1011.46 1011.86 1011.76 1011.80 1012.03 1012.10 1012.16 1012.39 1013.03 1013.62 1014.12 1014.54 1015.27 1015.92 1016.60 1017.06 1017.44 1017.73 1017.82 1018.03 1018.12 1018.27 1018.49 1018.61 1018.30 1018.10 1018.16 1018.21 1018.39 1018.09 1017.92 1017.90 1017.94 1017.79 1018.37 1018.53 1018.70 1018.75 1018.70 1018.63
1009.56 1009.69 1009.72 1009.90 1010.24 1010.77 1010.73 1010.58 1010.46 1010.80 1011.22 1010.99 1011.13 1011.28 1011.47 1011.47 1011.74 1012.49 1013.27 1013.77 1014.34 1014.97 1015.61 1016.11 1016.80 1017.24 1017.46 1017.66 1017.61 1017.73 1017.71 1017.84 1017.75 1017.75 1017.75 1017.89 1017.96 1018.12 1018.15 1017.87 1017.89 1017.83 1018.18 1018.37 1018.72 1018.95 1018.96 1018.91 1019.05
1009.12 1009.13 1009.17 1009.68 1010.01 1010.46 1010.36 1009.84 1009.56 1009.72 1009.66 1009.85 1010.20 1010.50 1010.71 1011.09 1011.52 1012.16 1012.76 1013.38 1013.90 1014.55 1015.18 1015.68 1016.30 1016.85 1017.14 1017.18 1017.23 1017.27 1017.33 1017.38 1017.21 1017.18 1017.44 1017.71 1017.84 1018.12 1018.20 1018.06 1018.08 1017.98 1018.35 1018.54 1018.89 1019.20 1019.09 1019.08 1019.12
1008.40 1008.59 1008.83 1009.23 1009.83 1010.19 1010.10 1008.81 1008.46 1008.52 1008.79 1009.00 1009.29 1009.60 1009.99 1010.49 1011.02 1011.61 1012.23 1012.80 1013.49 1014.09 1014.71 1015.23 1015.86 1016.35 1016.77 1017.08 1017.22 1017.32 1017.28 1017.27 1017.30 1017.35 1017.45 1017.57 1017.82 1018.01 1018.05 1018.24 1018.12 1018.13 1018.36 1018.46 1018.81 1019.09 1019.27 1019.00 1019.21
1007.67 1008.31 1008.53 1009.02 1009.32 1009.37 1009.68 1008.40 1007.60 1007.56 1007.78 1008.08 1008.07 1008.72 1009.17 1009.83 1010.48 1011.02 1011.67 1012.30 1012.81 1013.47 1014.19 1014.87 1015.43 1016.01 1016.50 1016.88 1016.94 1016.79 1016.64 1016.70 1016.92 1017.12 1017.32 1017.51 1017.77 1017.95 1018.04 1018.21 1018.28 1018.32 1018.17 1018.52 1018.64 1018.78 1019.00 1019.02 1018.90
1007.69 1008.05 1008.26 1008.82 1009.14 1009.13 1009.08 1008.77 1006.73 1007.24 1006.86 1006.84 1007.05 1007.42 1008.03 1008.60 1009.44 1010.17 1010.84 1011.57 1012.34 1013.05 1013.63 1014.40 1015.02 1015.69 1016.09 1016.51 1016.73 1016.79 1016.77 1016.76 1016.95 1017.24 1017.45 1017.59 1017.83 1017.90 1017.94 1018.05 1018.21 1018.30 1018.22 1018.40 1018.69 1018.82 1018.91 1018.91 1018.73
1007.59 1008.05 1008.45 1008.87 1008.92 1008.45 1008.16 1007.89 1005.97 1005.90 1005.68 1005.63 1005.89 1006.28 1007.00 1007.93 1008.66 1009.47 1010.43 1011.51 1012.46 1012.95 1013.33 1013.94 1014.64 1015.24 1015.86 1016.17 1016.54 1016.76 1016.78 1016.85 1016.93 1016.97 1017.16 1017.36 1017.64 1017.81 1017.86 1017.93 1018.04 1018.15 1018.19 1018.44 1018.55 1018.77 1018.98 1019.03 1018.95
1007.19 1007.21 1007.34 1007.74 1008.06 1007.21 1007.76 1007.30 1005.21 1005.15 1005.11 1005.03 1005.07 1005.33 1006.13 1007.10 1007.98 1008.80 1009.80 1011.05 1011.94 1012.35 1013.02 1013.43 1014.21 1014.71 1015.43 1015.95 1016.24 1016.51 1016.64 1016.90 1016.83 1016.76 1016.80 1017.01 1017.19 1017.43 1017.60 1017.81 1017.89 1017.94 1018.04 1018.11 1018.26 1018.59 1018.77 1018.82 1018.87
1006.24 1006.28 1006.16 1006.34 1006.90 1006.59 1007.20 1005.81 1004.16 1004.51 1004.74 1004.70 1004.82 1005.03 1005.74 1006.58 1007.27 1008.13 1009.13 1010.26 1011.22 1011.77 1012.54 1012.98 1013.68 1014.20 1014.90 1015.42 1015.89 1016.28 1016.47 1016.62 1016.69 1016.80 1016.75 1016.80 1016.87 1016.99 1017.24 1017.46 1017.59 1017.73 1017.80 1017.88 1018.05 1018.33 1018.43 1018.48 1018.45
1006.03 1006.15 1005.82 1006.03 1006.92 1006.46 1005.62 1004.91 1004.06 1004.09 1004.26 1004.53 1004.80 1005.16 1005.60 1006.19 1006.94 1007.65 1008.61 1009.60 1010.64 1011.09 1011.79 1012.42 1013.23 1013.81 1014.40 1014.89 1015.41 1015.80 1016.20 1016.43 1016.49 1016.69 1016.78 1016.74 1016.86 1016.84 1017.03 1017.14 1017.42 1017.42 1017.57 1017.71 1017.79 1017.93 1018.13 1018.25 1018.24
1004.83 1005.00 1005.54 1005.70 1005.55 1005.14 1004.83 1004.41 1003.53 1003.58 1003.88 1004.39 1004.63 1005.00 1005.50 1006.20 1006.88 1007.60 1008.41 1009.29 1010.09 1010.71 1011.42 1012.12 1012.72 1013.24 1013.78 1014.38 1014.85 1015.20 1015.65 1016.07 1016.34 1016.51 1016.67 1016.77 1016.68 1016.83 1016.84 1016.94 1017.02 1017.22 1017.23 1017.33 1017.65 1017.70 1017.81 1018.02 1017.97
1004.74 1004.56 1004.92 1005.07 1005.19 1004.31 1004.02 1003.23 1003.05 1003.16 1003.43 1003.89 1004.31 1004.92 1005.41 1005.95 1006.53 1007.34 1008.27 1009.27 1010.09 1010.87 1011.33 1011.68 1012.31 1012.86 1013.52 1014.04 1014.35 1014.86 1015.15 1015.54 1015.94 1016.09 1016.13 1016.38 1016.49 1016.65 1016.66 1016.68 1016.73 1016.80 1016.88 1017.05 1017.38 1017.56 1017.64 1017.63 1017.58
1003.70 1003.44 1003.74 1003.69 1004.48 1004.63 1004.10 1003.13 1002.92 1003.14 1003.40 1003.72 1004.19 1004.78 1005.39 1005.95 1006.47 1007.20 1008.02 1009.01 1009.88 1010.60 1010.82 1011.57 1012.14 1012.64 1013.12 1013.55 1014.18 1014.44 1014.84 1015.16 1015.39 1015.62 1015.70 1015.95 1016.06 1016.21 1016.32 1016.45 1016.52 1016.47 1016.40 1016.59 1016.91 1017.04 1017.03 1017.20 1017.14
Wind_Speed
10 7 2 1 2 1 3 4 1 4 3 2 4 1 1 5 2 3 3 3 12 12 9 10 9 11 12 11 10 10 10 10 10 8 7 6 6 7 8 9 10 10 10 11 10 10 10 9 9
7 4 1 0 0 3 4 4 12 8 7 7 6 4 3 4 4 7 9 6 12 11 10 9 9 10 10 10 10 8 10 9 8 7 7 6 7 7 7 10 11 10 11 11 10 10 9 8 9
7 1 1 2 2 3 6 5 5 2 3 2 4 5 3 3 4 8 4 13 12 9 8 9 10 11 10 10 8 9 9 8 7 6 7 7 7 6 9 11 11 11 11 11 9 8 7 6 7
2 2 2 1 2 2 6 5 1 2 4 4 6 6 5 4 5 3 10 13 12 10 8 10 11 11 10 8 7 7 7 8 7 6 6 5 5 7 9 10 11 11 10 9 8 6 6 5 5
1 1 2 2 1 1 2 1 1 2 0 4 1 5 3 3 4 9 11 11 11 9 8 8 10 10 10 8 8 8 8 7 6 6 4 4 7 7 11 10 9 9 8 7 6 5 6 5 6
0 1 2 1 0 1 2 2 1 3 3 5 4 5 3 3 7 8 9 9 7 8 6 6 7 8 9 9 9 8 6 7 5 5 5 6 10 7 9 10 8 7 8 8 6 6 5 6 4
1 1 3 2 1 3 3 5 1 4 6 4 7 3 4 7 8 7 8 8 8 6 6 5 6 8 8 9 9 8 7 9 6 4 4 10 8 7 6 7 8 8 7 8 8 8 6 5 5
2 0 0 1 3 2 4 4 2 4 5 8 1 2 6 9 9 9 8 8 7 6 7 6 6 7 6 4 8 8 10 9 8 6 6 7 7 11 4 5 6 7 6 7 8 8 5 7 7
1 0 2 2 4 3 6 4 3 3 8 4 4 2 6 15 11 9 9 8 6 5 4 5 6 4 4 2 3 6 8 9 9 9 6 5 5 3 6 4 6 6 5 7 8 7 9 6 5
2 1 1 1 2 3 7 3 7 6 6 3 7 11 14 14 11 9 7 7 6 5 5 5 5 5 4 3 6 7 5 6 5 5 1 2 4 3 3 4 2 3 4 6 5 5 4 2 2
2 2 3 1 3 8 5 4 3 6 3 3 8 13 13 13 9 7 6 4 5 6 5 6 5 5 4 5 5 4 4 3 3 4 3 3 2 0 2 3 3 2 3 3 5 4 2 3 2
2 4 3 2 4 6 3 3 4 3 2 3 12 13 12 12 10 8 7 6 5 5 5 5 5 5 5 5 5 5 5 3 2 3 4 3 1 2 1 1 2 4 2 3 2 1 1 3 3
1 1 5 4 5 4 4 6 2 4 5 10 14 13 11 10 9 6 5 6 4 5 4 5 5 5 6 6 4 4 6 4 4 3 3 2 1 1 2 2 4 3 2 1 2 2 3 3 3
4 7 5 3 5 4 4 3 3 4 7 10 13 12 11 11 10 7 7 7 6 5 4 6 6 7 6 5 6 3 4 4 4 2 2 1 3 2 4 4 5 4 3 1 2 3 1 2 3
2 4 4 3 1 2 4 1 4 4 9 10 12 10 10 9 9 9 8 8 7 7 5 6 6 8 8 9 5 4 3 3 3 3 2 1 2 3 4 3 3 4 1 1 1 2 1 3 4
2 2 2 4 4 3 5 6 11 7 5 9 10 11 11 11 11 10 9 9 8 7 7 6 6 8 8 9 4 3 2 1 3 3 2 1 2 4 4 3 3 2 1 1 1 3 4 5 5
0 4 2 2 8 3 6 3 4 9 6 9 11 12 11 11 11 11 11 10 10 9 9 8 7 9 8 7 4 3 4 3 2 2 3 4 3 4 4 2 2 3 2 2 3 4 4 4 4
2 5 2 4 8 7 8 11 1 12 11 11 13 13 13 13 14 13 13 11 11 10 10 9 8 8 8 7 6 5 4 2 4 5 6 6 5 4 2 1 3 3 3 1 2 4 4 3 4
3 5 7 2 5 9 11 11 11 10 15 15 13 14 15 16 13 12 13 13 11 11 11 11 10 8 7 7 7 6 7 6 5 5 5 6 5 4 2 2 3 4 2 2 2 1 2 1 2
6 8 7 1 5 10 5 15 16 14 19 19 18 17 17 14 10 13 15 14 14 12 12 11 11 10 8 6 4 2 3 3 1 3 4 4 4 4 4 2 2 3 2 2 4 2 1 1 2
9 9 7 4 5 5 7 9 8 11 17 15 19 19 18 17 13 14 16 16 14 14 13 12 11 10 9 8 4 3 3 3 3 4 4 5 5 5 3 3 2 3 2 3 3 2 2 1 1
13 4 9 7 6 4 2 6 6 5 12 17 17 19 17 17 14 14 15 16 16 16 13 12 11 12 10 10 7 6 5 5 3 4 4 5 5 5 5 4 3 3 2 3 3 2 0 2 2
5 4 1 4 3 5 4 5 3 2 7 17 18 18 19 18 16 17 18 17 16 15 14 14 13 12 11 11 10 7 6 3 3 3 5 4 4 5 5 5 5 4 3 3 4 4 2 1 1
6 8 8 5 1 4 2 4 7 3 4 3 12 19 20 19 18 17 14 11 8 11 13 13 14 13 12 12 12 11 8 6 5 5 5 6 4 4 5 6 5 4 3 3 3 3 4 3 3
7 6 1 2 2 4 1 5 10 5 9 11 9 13 19 19 18 16 16 15 12 16 13 13 15 15 13 13 12 12 11 9 8 6 6 6 5 5 6 7 6 5 5 5 4 4 4 4 4
12 8 4 5 5 5 2 6 4 2 7 6 4 7 13 18 18 18 18 16 13 16 16 13 14 14 13 13 13 11 10 7 7 7 6 6 6 5 5 7 6 7 7 6 5 4 4 4 4
7 7 1 3 1 5 2 6 11 3 4 2 2 6 11 16 18 20 16 16 14 17 17 15 12 12 13 14 12 12 10 10 8 8 7 6 6 6 6 6 7 8 7 7 6 5 6 4 4
6 11 5 3 5 7 3 5 6 4 6 4 4 6 8 11 14 15 14 14 14 15 15 14 14 15 13 13 12 12 12 11 9 7 8 8 7 7 7 7 8 8 8 7 6 5 5 6 6
6 6 2 2 3 4 4 5 3 5 6 9 7 7 7 10 13 14 14 11 11 11 10 13 13 12 11 12 12 13 12 12 10 9 9 9 8 7 7 7 8 9 8 8 8 8 7 8 7
4 7 14 9 8 1 4 5 2 4 6 5 5 7 6 8 10 10 11 12 13 12 12 12 10 10 10 10 10 12 11 11 11 11 11 9 9 7 9 7 7 7 7 8 9 10 9 9 8
Wind_Direction
149 148 157 178 205 78 59 44 32 100 53 0 103 295 105 53 356 19 104 129 149 143 146 146 138 130 125 126 122 110 109 107 113 112 118 129 127 127 117 121 113 105 116 109 110 101 107 115 111
140 147 196 133 213 134 98 44 91 79 133 108 91 77 48 75 57 106 136 140 148 144 145 150 137 139 129 126 126 127 122 118 121 137 131 127 125 116 123 114 105 110 111 112 107 107 113 120 123
152 188 317 52 101 138 123 118 97 50 260 111 109 62 49 53 82 139 116 146 145 142 146 144 147 144 144 139 136 131 130 134 131 145 135 143 149 139 123 109 113 110 113 110 108 111 112 119 117
168 139 108 9 149 111 119 133 44 70 99 74 116 93 99 16 137 131 140 147 145 146 150 151 158 145 146 149 141 136 132 138 146 157 144 152 125 132 117 121 111 110 109 110 110 112 119 122 128
173 142 63 84 22 96 171 209 113 80 317 106 130 110 85 64 77 130 142 154 151 149 148 148 152 148 147 157 158 145 141 140 150 140 123 139 126 121 124 120 119 112 109 102 119 141 133 153 145
143 280 36 35 31 206 261 139 203 151 123 122 98 110 91 103 126 130 139 149 150 149 134 149 133 138 150 161 157 156 151 144 162 175 160 123 92 122 137 127 119 113 93 81 84 84 126 139 107
343 36 28 81 70 197 206 153 197 148 99 80 121 102 114 123 129 133 133 141 141 144 153 152 154 147 161 164 161 159 159 146 160 164 110 123 133 134 125 128 121 101 90 90 87 82 101 104 89
114 60 149 187 159 217 140 149 201 86 91 120 108 129 154 146 138 132 134 132 137 150 160 171 166 162 175 184 181 174 165 160 146 123 100 130 142 108 158 142 122 113 109 96 98 95 94 109 86
121 285 347 332 183 144 152 174 200 95 125 100 47 78 119 136 143 141 135 129 134 137 145 154 149 147 150 200 149 173 161 145 128 103 82 70 97 108 152 114 148 132 133 117 129 107 99 79 81
205 256 311 231 189 196 170 150 158 156 136 105 90 97 128 142 157 158 157 146 159 153 132 115 127 129 147 130 90 85 56 97 76 99 135 89 86 118 114 103 128 141 150 139 159 168 118 124 86
158 319 330 41 151 145 147 154 127 145 158 193 155 145 147 153 167 163 154 146 140 155 157 139 126 111 121 102 109 103 102 122 111 124 122 80 85 67 202 164 171 170 151 171 194 184 257 89 101
276 37 25 75 147 163 137 135 114 125 86 158 145 151 154 168 174 174 169 152 149 161 156 134 126 109 103 121 107 118 123 117 129 114 124 93 111 104 243 186 193 224 187 197 186 130 38 140 165
233 70 49 109 122 112 96 70 48 178 101 120 138 152 169 176 174 186 171 154 155 176 168 152 133 123 115 106 98 97 126 120 125 148 128 79 317 133 254 216 243 246 223 246 140 115 118 159 166
67 86 101 105 107 112 126 30 128 90 130 137 151 170 181 186 179 187 191 179 171 177 172 148 139 127 130 115 100 86 134 132 156 148 92 56 301 275 247 227 236 241 243 162 144 108 107 103 87
111 105 117 121 138 120 145 181 185 115 157 160 170 181 196 196 186 206 201 194 186 175 163 167 140 139 145 131 140 166 183 151 186 168 159 205 286 215 235 218 232 256 216 74 143 80 34 75 76
186 185 262 166 193 168 256 240 202 166 157 194 184 187 208 203 200 209 211 203 189 171 172 175 162 151 154 146 154 149 157 216 301 13 17 338 141 191 214 221 246 271 97 286 43 26 49 46 40
279 323 257 192 203 186 232 296 161 174 177 206 206 206 212 217 205 206 212 202 189 180 170 179 184 172 165 161 147 166 206 190 236 259 244 237 174 190 211 211 210 246 264 94 29 32 24 53 57
306 320 276 242 192 213 217 254 229 188 198 215 218 208 215 225 221 205 206 201 190 184 180 178 184 177 173 169 166 183 224 246 228 226 213 183 164 179 195 164 199 244 284 50 38 30 30 21 61
280 291 301 260 179 197 234 263 243 205 207 218 215 210 213 222 231 210 201 194 190 188 186 182 188 193 186 180 177 186 202 203 201 203 188 162 161 141 134 189 205 237 262 311 52 53 9 1 32
252 286 288 178 157 204 243 259 246 228 224 216 212 210 215 219 210 197 193 193 189 194 197 184 193 195 201 197 188 194 160 173 172 163 164 162 164 155 227 210 188 250 130 175 128 103 47 325 330
249 266 277 289 132 214 279 269 231 231 230 232 224 220 217 214 203 196 190 194 191 193 196 193 193 198 201 199 188 168 137 143 163 168 175 177 179 180 195 174 191 221 198 175 178 271 195 261 50
276 226 251 202 203 288 253 299 267 226 230 224 229 213 210 209 207 199 198 192 193 198 192 197 192 197 201 190 201 213 188 185 176 182 178 175 185 182 188 170 187 225 216 164 198 217 340 227 112
284 50 249 188 198 287 184 254 270 225 232 229 224 216 211 205 202 200 202 195 193 190 187 193 195 198 201 195 204 211 212 202 164 178 176 196 185 200 192 197 192 196 221 185 193 193 228 230 299
135 103 95 103 247 252 93 247 281 216 224 234 223 216 207 200 201 201 195 188 184 187 189 187 192 198 204 198 199 208 219 206 195 186 190 191 195 207 209 203 211 216 226 222 223 198 195 213 261
195 189 219 190 197 279 98 227 264 252 264 261 277 223 207 200 197 195 193 186 184 193 189 188 194 197 199 207 204 208 209 215 220 205 206 204 207 209 210 208 206 215 221 220 223 212 221 214 219
194 228 233 254 222 283 147 237 267 172 300 288 271 226 198 199 196 192 195 190 184 192 190 189 195 202 198 203 211 214 209 213 221 219 221 224 225 225 203 209 215 224 226 228 219 223 238 222 218
157 206 238 136 106 268 259 259 265 256 215 227 170 179 192 195 199 195 190 191 186 194 191 182 181 197 201 208 210 209 213 213 221 224 226 230 233 229 222 226 218 220 233 232 232 236 242 246 234
223 144 170 195 227 256 214 277 280 240 194 202 184 200 189 193 196 197 193 189 190 196 195 188 194 196 200 206 210 211 214 215 225 219 221 230 240 244 251 242 219 217 223 230 234 248 239 239 241
159 192 112 116 280 258 283 298 200 227 193 188 187 204 192 189 191 189 189 187 184 180 180 192 195 195 198 204 207 215 216 216 222 227 221 225 227 230 236 233 225 218 216 221 223 237 247 239 239
217 227 212 220 197 266 305 277 152 220 185 202 163 187 186 182 185 186 184 176 178 180 181 187 186 193 203 204 205 215 220 222 218 226 226 221 220 221 240 221 240 245 232 215 227 242 238 240 244